This is the latest recevied weather packets stored in our database for station/object OE-11344. If no packets are shown the sender has not sent any weather packets the latest 10 day(s).
| Time | Temp. | Humidity | Pressure | Rain* | Wind** | Luminosity | Snow |
|---|---|---|---|---|---|---|---|
| 1787848885 | 22.78° C | 47% | 854 hPa | 0 mm | - | 79 W/m² | - |
| 1787848512 | 22.78° C | 46% | 854 hPa | 0 mm | - | 91 W/m² | - |
| 1787847912 | 22.78° C | 45% | 854.2 hPa | 0 mm | - | 127 W/m² | - |
| 1787847085 | 22.78° C | 46% | 854.2 hPa | 0 mm | - | 121 W/m² | - |
| 1787846712 | 22.78° C | 46% | 854.3 hPa | 0 mm | - | 223 W/m² | - |
| 1787846112 | 22.78° C | 47% | 854.2 hPa | 0 mm | - | 181 W/m² | - |
| 1787845284 | 23.33° C | 46% | 854.1 hPa | 0 mm | - | 157 W/m² | - |
| 1787844912 | 23.33° C | 46% | 854.1 hPa | 0 mm | - | 157 W/m² | - |
| 1787844312 | 23.33° C | 46% | 854.1 hPa | 0 mm | - | 181 W/m² | - |
| 1787843485 | 23.33° C | 45% | 854.1 hPa | 0 mm | - | 193 W/m² | - |
| 1787843112 | 23.33° C | 46% | 854.1 hPa | 0 mm | - | 217 W/m² | - |
| 1787842512 | 23.33° C | 44% | 854.1 hPa | 0 mm | - | 314 W/m² | - |
| 1787841685 | 23.33° C | 46% | 854.2 hPa | 0 mm | - | 284 W/m² | - |
| 1787841312 | 23.33° C | 44% | 854.2 hPa | 0 mm | - | 338 W/m² | - |
| 1787839885 | 23.89° C | 44% | 854.1 hPa | 0 mm | - | 278 W/m² | - |
| 1787839512 | 23.89° C | 43% | 854 hPa | 0 mm | - | 411 W/m² | - |
| 1787838912 | 23.89° C | 43% | 853.9 hPa | 0 mm | - | 465 W/m² | - |
| 1787838085 | 24.44° C | 41% | 853.9 hPa | 0 mm | - | 501 W/m² | - |
| 1787837712 | 24.44° C | 38% | 854 hPa | 0 mm | - | 525 W/m² | - |
| 1787837112 | 24.44° C | 39% | 853.9 hPa | 0 mm | - | 513 W/m² | - |
| 1787836285 | 24.44° C | 38% | 853.9 hPa | 0 mm | - | 519 W/m² | - |
| 1787835911 | 23.89° C | 38% | 853.9 hPa | 0 mm | - | 477 W/m² | - |
| 1787835312 | 24.44° C | 38% | 853.9 hPa | 0 mm | - | 598 W/m² | - |
| 1787834485 | 23.89° C | 37% | 854.1 hPa | 0 mm | - | 471 W/m² | - |
| 1787834111 | 23.89° C | 38% | 854 hPa | 0 mm | - | 537 W/m² | - |
* Rain latest hour (hover to see other rain measurements)
** Current wind speed in m/s (hover to see current wind gust speed)